When you browse on this site, cookies collect data to enhance your experience and personalize the content and advertising you see.
Visit our Privacy Policy to learn more. By continuing to use the site, you agree to this use of cookies and data.
  • In Hungary
  • List of Countries
  • For 7 days
  • Water Temperature
  • Weather Map
  • News
  • Weather Widgets
  • user-avatar
    Login

    Hourly Weather Ali Bayramli

    Today, 27 May, Wednesday

    Time Temperature Precipitation Wind Pressure Humidity
    00:00 +19°C° 0 mm 1 mps 764 mmHg 62%
    01:00 +19°C° 0 mm 1 mps 763 mmHg 63%
    02:00 +18°C° 0 mm 1 mps 763 mmHg 64%
    03:00 +18°C° 0 mm 1 mps 763 mmHg 66%
    04:00 +19°C° 0 mm 1 mps 764 mmHg 63%
    05:00 +20°C° 0 mm 1 mps 764 mmHg 60%
    06:00 +21°C° 0 mm 1 mps 765 mmHg 56%
    07:00 +22°C° 0 mm 1 mps 765 mmHg 51%
    08:00 +24°C° 0 mm 1 mps 765 mmHg 46%
    09:00 +25°C° 0 mm 1 mps 765 mmHg 42%
    10:00 +27°C° 0 mm 1 mps 764 mmHg 38%
    11:00 +28°C° 0 mm 1 mps 764 mmHg 34%
    12:00 +30°C° 0 mm 2 mps 764 mmHg 31%
    13:00 +30°C° 0 mm 2 mps 763 mmHg 30%
    14:00 +30°C° 0 mm 3 mps 762 mmHg 30%
    15:00 +32°C° 0 mm 4 mps 762 mmHg 30%
    16:00 +29°C° 0 mm 4 mps 762 mmHg 32%
    17:00 +28°C° 0 mm 4 mps 762 mmHg 35%
    18:00 +27°C° 0 mm 5 mps 762 mmHg 37%
    19:00 +25°C° 0 mm 4 mps 762 mmHg 43%
    20:00 +24°C° 0 mm 3 mps 762 mmHg 49%
    21:00 +21°C° 0 mm 2 mps 762 mmHg 54%
    22:00 +21°C° 0 mm 2 mps 762 mmHg 57%
    23:00 +21°C° 0 mm 1 mps 761 mmHg 59%

    Tomorrow, 28 May, Thursday

    Time Temperature Precipitation Wind Pressure Humidity
    00:00 +21°C° 0 mm 1 mps 761 mmHg 62%
    01:00 +20°C° 0 mm 1 mps 761 mmHg 63%
    02:00 +20°C° 0 mm 1 mps 761 mmHg 63%
    03:00 +20°C° 0 mm 1 mps 760 mmHg 64%
    04:00 +20°C° 0 mm 1 mps 761 mmHg 61%
    05:00 +21°C° 0 mm 1 mps 761 mmHg 59%
    06:00 +22°C° 0 mm 1 mps 761 mmHg 56%
    07:00 +23°C° 0 mm 1 mps 760 mmHg 50%
    08:00 +25°C° 0 mm 1 mps 760 mmHg 44%
    09:00 +27°C° 0 mm 1 mps 760 mmHg 38%
    10:00 +28°C° 0 mm 1 mps 760 mmHg 35%
    11:00 +30°C° 0 mm 2 mps 759 mmHg 32%
    12:00 +32°C° 0 mm 2 mps 759 mmHg 29%
    13:00 +33°C° 0 mm 3 mps 759 mmHg 29%
    14:00 +33°C° 0 mm 5 mps 758 mmHg 29%
    15:00 +33°C° 0 mm 6 mps 757 mmHg 29%
    16:00 +30°C° 0 mm 6 mps 757 mmHg 33%
    17:00 +28°C° 0 mm 5 mps 757 mmHg 37%
    18:00 +27°C° 0 mm 5 mps 757 mmHg 40%
    19:00 +25°C° 0 mm 4 mps 757 mmHg 46%
    20:00 +24°C° 0 mm 3 mps 757 mmHg 52%
    21:00 +23°C° 0 mm 2 mps 757 mmHg 57%
    22:00 +22°C° 0 mm 1 mps 757 mmHg 59%
    23:00 +22°C° 0 mm 1 mps 757 mmHg 61%

    Day after tomorrow, 29 May, Friday

    Time Temperature Precipitation Wind Pressure Humidity
    00:00 +21°C° 0 mm 1 mps 757 mmHg 63%
    01:00 +21°C° 0 mm 1 mps 756 mmHg 65%
    02:00 +21°C° 0 mm 1 mps 756 mmHg 67%
    03:00 +20°C° 0 mm 1 mps 756 mmHg 69%
    04:00 +21°C° 0 mm 1 mps 756 mmHg 66%
    05:00 +22°C° 0 mm 1 mps 756 mmHg 63%
    06:00 +22°C° 0 mm 1 mps 756 mmHg 60%
    07:00 +24°C° 0 mm 1 mps 756 mmHg 54%
    08:00 +26°C° 0 mm 2 mps 756 mmHg 47%
    09:00 +28°C° 0 mm 2 mps 755 mmHg 41%
    10:00 +30°C° 0 mm 2 mps 755 mmHg 38%
    11:00 +31°C° 0 mm 3 mps 755 mmHg 35%
    12:00 +34°C° 0 mm 4 mps 754 mmHg 32%
    13:00 +34°C° 0 mm 5 mps 754 mmHg 33%
    14:00 +34°C° 0 mm 6 mps 753 mmHg 33%
    15:00 +34°C° 0 mm 7 mps 752 mmHg 33%
    16:00 +32°C° 0.3 mm 6 mps 752 mmHg 38%
    17:00 +29°C° 0.3 mm 5 mps 752 mmHg 43%
    18:00 +28°C° 0.3 mm 4 mps 751 mmHg 47%
    19:00 +26°C° 0.1 mm 4 mps 751 mmHg 53%
    20:00 +25°C° 0.1 mm 4 mps 751 mmHg 59%
    21:00 +24°C° 0.1 mm 3 mps 751 mmHg 65%
    22:00 +22°C° 0 mm 3 mps 751 mmHg 65%
    23:00 +23°C° 0 mm 2 mps 751 mmHg 65%

    30 May, Saturday

    Time Temperature Precipitation Wind Pressure Humidity
    00:00 +23°C° 0 mm 2 mps 751 mmHg 66%
    01:00 +23°C° 0 mm 2 mps 751 mmHg 68%
    02:00 +21°C° 0 mm 2 mps 751 mmHg 70%
    03:00 +21°C° 0 mm 2 mps 751 mmHg 73%
    04:00 +21°C° 0 mm 2 mps 751 mmHg 70%
    05:00 +23°C° 0 mm 2 mps 752 mmHg 68%
    06:00 +23°C° 0 mm 2 mps 752 mmHg 65%
    07:00 +26°C° 0 mm 3 mps 753 mmHg 58%
    08:00 +28°C° 0 mm 4 mps 753 mmHg 50%
    09:00 +32°C° 0 mm 4 mps 753 mmHg 43%
    10:00 +33°C° 0 mm 5 mps 754 mmHg 40%
    11:00 +34°C° 0 mm 5 mps 754 mmHg 36%
    12:00 +35°C° 0 mm 5 mps 754 mmHg 33%
    13:00 +35°C° 0 mm 6 mps 754 mmHg 33%
    14:00 +36°C° 0 mm 6 mps 754 mmHg 33%
    15:00 +36°C° 0 mm 7 mps 754 mmHg 34%
    16:00 +34°C° 0 mm 7 mps 755 mmHg 37%
    17:00 +33°C° 0 mm 7 mps 755 mmHg 40%
    18:00 +32°C° 0 mm 7 mps 755 mmHg 43%
    19:00 +29°C° 0 mm 7 mps 756 mmHg 46%
    20:00 +27°C° 0 mm 7 mps 756 mmHg 49%
    21:00 +26°C° 0 mm 6 mps 757 mmHg 53%
    22:00 +25°C° 0 mm 5 mps 757 mmHg 56%
    23:00 +23°C° 0 mm 4 mps 757 mmHg 59%

    31 May, Sunday

    Time Temperature Precipitation Wind Pressure Humidity
    00:00 +22°C° 0 mm 3 mps 758 mmHg 63%
    01:00 +22°C° 0 mm 3 mps 758 mmHg 64%
    02:00 +23°C° 0 mm 2 mps 758 mmHg 66%
    03:00 +21°C° 0 mm 2 mps 758 mmHg 67%
    04:00 +23°C° 0 mm 2 mps 759 mmHg 65%
    05:00 +23°C° 0 mm 2 mps 759 mmHg 62%
    06:00 +23°C° 0 mm 2 mps 759 mmHg 60%
    07:00 +25°C° 0 mm 2 mps 759 mmHg 55%
    08:00 +26°C° 0 mm 2 mps 759 mmHg 50%
    09:00 +28°C° 0 mm 2 mps 760 mmHg 44%
    10:00 +29°C° 0 mm 2 mps 759 mmHg 41%
    11:00 +30°C° 0 mm 2 mps 759 mmHg 37%
    12:00 +31°C° 0 mm 2 mps 759 mmHg 34%
    13:00 +32°C° 0 mm 4 mps 759 mmHg 33%
    14:00 +32°C° 0 mm 6 mps 759 mmHg 33%
    15:00 +32°C° 0 mm 7 mps 759 mmHg 33%
    16:00 +31°C° 0 mm 8 mps 759 mmHg 33%
    17:00 +29°C° 0 mm 8 mps 759 mmHg 33%
    18:00 +28°C° 0 mm 8 mps 759 mmHg 34%
    19:00 +26°C° 0 mm 7 mps 759 mmHg 37%
    20:00 +24°C° 0 mm 6 mps 760 mmHg 39%
    21:00 +23°C° 0 mm 5 mps 760 mmHg 42%
    22:00 +22°C° 0 mm 5 mps 760 mmHg 46%
    23:00 +21°C° 0 mm 4 mps 760 mmHg 50%

    1 June, Monday

    Time Temperature Precipitation Wind Pressure Humidity
    00:00 +21°C° 0 mm 3 mps 760 mmHg 55%
    01:00 +20°C° 0 mm 3 mps 760 mmHg 57%
    02:00 +20°C° 0 mm 2 mps 759 mmHg 60%
    03:00 +20°C° 0 mm 1 mps 759 mmHg 63%
    04:00 +21°C° 0 mm 1 mps 759 mmHg 61%
    05:00 +21°C° 0 mm 1 mps 759 mmHg 59%
    06:00 +22°C° 0 mm 1 mps 759 mmHg 56%
    07:00 +23°C° 0 mm 2 mps 759 mmHg 50%
    08:00 +25°C° 0 mm 2 mps 759 mmHg 43%
    09:00 +27°C° 0 mm 2 mps 759 mmHg 36%
    10:00 +28°C° 0 mm 3 mps 758 mmHg 34%
    11:00 +30°C° 0 mm 4 mps 758 mmHg 31%
    12:00 +32°C° 0 mm 4 mps 757 mmHg 29%
    13:00 +32°C° 0 mm 5 mps 757 mmHg 29%
    14:00 +32°C° 0 mm 6 mps 756 mmHg 29%
    15:00 +32°C° 0 mm 6 mps 755 mmHg 29%
    16:00 +30°C° 0 mm 6 mps 755 mmHg 33%
    17:00 +29°C° 0 mm 6 mps 755 mmHg 36%
    18:00 +27°C° 0 mm 5 mps 754 mmHg 40%
    19:00 +26°C° 0 mm 5 mps 754 mmHg 46%
    20:00 +23°C° 0 mm 4 mps 755 mmHg 52%
    21:00 +22°C° 0 mm 3 mps 755 mmHg 58%
    22:00 +23°C° 0 mm 2 mps 754 mmHg 61%
    23:00 +21°C° 0 mm 2 mps 754 mmHg 63%
    Show more